Location: Jackson Park
(37.2862°N, 79.9123°W)
Time: 13:36:32
(UTC+00:00)

Vanguard 2 Rocket - Pass Details

Date: 12 May 2026
Orbit: 553 x 3286 km, 32.9° (Epoch: 6 June)

Event Time Altitude Azimuth Distance (km) Brightness Sun altitude
Rises 18:35:11 0° 259° (W) 6,076 11.4 64.3°
Reaches altitude 10° 18:38:42 10° 258° (WSW) 5,346 11.3 63.8°
Maximum altitude 18:56:16 77° 177° (S) 3,301 11.2 61.0°
Drops below altitude 10° 19:16:01 10° 95° (E) 5,903 10.9 57.6°
Sets 19:20:07 0° 94° (E) 6,706 11.0 56.9°
